• In Kazakhstan
  • List of Countries
  • For 7 days
  • Water Temperature
  • Weather Map
  • News
  • Weather Widgets
  • user-avatar
    Login

    Hourly Weather Tarija

    Today, 24 February, Monday

    Time Temperature Precipitation Wind Pressure Humidity
    00:00 +15°C° 0 mm 1 mps 596 mmHg 85%
    01:00 +15°C° 0 mm 1 mps 595 mmHg 85%
    02:00 +15°C° 0 mm 1 mps 595 mmHg 86%
    03:00 +15°C° 0 mm 1 mps 595 mmHg 86%
    04:00 +14°C° 0 mm 1 mps 594 mmHg 86%
    05:00 +14°C° 0 mm 1 mps 594 mmHg 86%
    06:00 +16°C° 0 mm 1 mps 595 mmHg 81%
    07:00 +18°C° 0 mm 1 mps 596 mmHg 75%
    08:00 +20°C° 0 mm 1 mps 596 mmHg 70%
    09:00 +21°C° 0.1 mm 1 mps 597 mmHg 66%
    10:00 +23°C° 0.1 mm 1 mps 597 mmHg 63%
    11:00 +24°C° 0.1 mm 1 mps 597 mmHg 60%
    12:00 +25°C° 0.3 mm 1 mps 596 mmHg 58%
    13:00 +26°C° 0.3 mm 2 mps 596 mmHg 56%
    14:00 +27°C° 0.3 mm 2 mps 596 mmHg 54%
    15:00 +27°C° 0.1 mm 3 mps 595 mmHg 57%
    16:00 +26°C° 0.1 mm 3 mps 594 mmHg 59%
    17:00 +25°C° 0.1 mm 3 mps 593 mmHg 62%
    18:00 +24°C° 0.2 mm 2 mps 593 mmHg 67%
    19:00 +21°C° 0.2 mm 2 mps 593 mmHg 72%
    20:00 +21°C° 0.2 mm 1 mps 594 mmHg 78%
    21:00 +20°C° 0.2 mm 1 mps 594 mmHg 79%
    22:00 +20°C° 0.2 mm 1 mps 594 mmHg 80%
    23:00 +20°C° 0.2 mm 1 mps 594 mmHg 81%

    Tomorrow, 25 February, Tuesday

    Time Temperature Precipitation Wind Pressure Humidity
    00:00 +17°C° 0.2 mm 0 mps 594 mmHg 82%
    01:00 +17°C° 0.2 mm 0 mps 593 mmHg 83%
    02:00 +17°C° 0.2 mm 0 mps 593 mmHg 84%
    03:00 +17°C° 0.4 mm 0 mps 593 mmHg 86%
    04:00 +16°C° 0.4 mm 0 mps 593 mmHg 87%
    05:00 +16°C° 0.4 mm 0 mps 593 mmHg 88%
    06:00 +17°C° 0.6 mm 0 mps 593 mmHg 85%
    07:00 +18°C° 0.6 mm 0 mps 594 mmHg 81%
    08:00 +19°C° 0.6 mm 0 mps 595 mmHg 77%
    09:00 +22°C° 0.3 mm 1 mps 596 mmHg 73%
    10:00 +23°C° 0.3 mm 1 mps 596 mmHg 69%
    11:00 +25°C° 0.3 mm 2 mps 596 mmHg 64%
    12:00 +25°C° 0.3 mm 2 mps 596 mmHg 65%
    13:00 +25°C° 0.3 mm 3 mps 596 mmHg 65%
    14:00 +25°C° 0.3 mm 3 mps 595 mmHg 66%
    15:00 +24°C° 0.3 mm 3 mps 595 mmHg 71%
    16:00 +22°C° 0.3 mm 3 mps 594 mmHg 76%
    17:00 +20°C° 0.3 mm 2 mps 593 mmHg 80%
    18:00 +20°C° 0.3 mm 2 mps 594 mmHg 84%
    19:00 +19°C° 0.3 mm 2 mps 595 mmHg 88%
    20:00 +18°C° 0.3 mm 2 mps 595 mmHg 91%
    21:00 +18°C° 0.3 mm 2 mps 596 mmHg 92%
    22:00 +19°C° 0.3 mm 1 mps 597 mmHg 93%
    23:00 +19°C° 0.3 mm 1 mps 598 mmHg 94%

    Day after tomorrow, 26 February, Wednesday

    Time Temperature Precipitation Wind Pressure Humidity
    00:00 +17°C° 0.6 mm 2 mps 598 mmHg 95%
    01:00 +17°C° 0.6 mm 2 mps 597 mmHg 95%
    02:00 +17°C° 0.6 mm 2 mps 597 mmHg 96%
    03:00 +16°C° 0.3 mm 2 mps 597 mmHg 96%
    04:00 +16°C° 0.3 mm 2 mps 597 mmHg 96%
    05:00 +16°C° 0.3 mm 2 mps 597 mmHg 96%
    06:00 +16°C° 0.6 mm 2 mps 598 mmHg 96%
    07:00 +16°C° 0.6 mm 2 mps 598 mmHg 96%
    08:00 +16°C° 0.6 mm 3 mps 599 mmHg 96%
    09:00 +16°C° 0.2 mm 2 mps 599 mmHg 90%
    10:00 +16°C° 0.2 mm 2 mps 599 mmHg 85%
    11:00 +16°C° 0.2 mm 1 mps 599 mmHg 80%
    12:00 +18°C° 0 mm 1 mps 599 mmHg 74%
    13:00 +19°C° 0 mm 2 mps 599 mmHg 69%
    14:00 +20°C° 0 mm 2 mps 599 mmHg 64%
    15:00 +20°C° 0 mm 2 mps 599 mmHg 64%
    16:00 +20°C° 0 mm 2 mps 598 mmHg 64%
    17:00 +20°C° 0 mm 3 mps 598 mmHg 63%
    18:00 +19°C° 0 mm 2 mps 598 mmHg 71%
    19:00 +17°C° 0 mm 2 mps 597 mmHg 78%
    20:00 +16°C° 0 mm 1 mps 597 mmHg 86%
    21:00 +16°C° 0 mm 1 mps 598 mmHg 87%
    22:00 +15°C° 0 mm 1 mps 598 mmHg 88%
    23:00 +15°C° 0 mm 1 mps 599 mmHg 89%

    27 February, Thursday

    Time Temperature Precipitation Wind Pressure Humidity
    00:00 +15°C° 0 mm 1 mps 598 mmHg 89%
    01:00 +14°C° 0 mm 0 mps 598 mmHg 89%
    02:00 +13°C° 0 mm 0 mps 597 mmHg 89%
    03:00 +13°C° 0 mm 0 mps 597 mmHg 90%
    04:00 +13°C° 0 mm 0 mps 597 mmHg 90%
    05:00 +12°C° 0 mm 0 mps 596 mmHg 91%
    06:00 +13°C° 0 mm 0 mps 597 mmHg 85%
    07:00 +15°C° 0 mm 0 mps 598 mmHg 80%
    08:00 +18°C° 0 mm 1 mps 599 mmHg 74%
    09:00 +19°C° 0 mm 1 mps 599 mmHg 69%
    10:00 +21°C° 0 mm 1 mps 599 mmHg 63%
    11:00 +21°C° 0 mm 2 mps 600 mmHg 58%
    12:00 +23°C° 0 mm 2 mps 599 mmHg 57%
    13:00 +22°C° 0 mm 3 mps 599 mmHg 56%
    14:00 +24°C° 0 mm 3 mps 598 mmHg 55%
    15:00 +22°C° 0 mm 3 mps 597 mmHg 58%
    16:00 +21°C° 0 mm 3 mps 597 mmHg 61%
    17:00 +20°C° 0 mm 3 mps 596 mmHg 64%
    18:00 +20°C° 0 mm 2 mps 596 mmHg 67%
    19:00 +20°C° 0 mm 1 mps 596 mmHg 70%
    20:00 +19°C° 0 mm 1 mps 597 mmHg 73%
    21:00 +19°C° 0 mm 1 mps 597 mmHg 74%
    22:00 +18°C° 0 mm 1 mps 597 mmHg 75%
    23:00 +18°C° 0 mm 1 mps 597 mmHg 76%

    28 February, Friday

    Time Temperature Precipitation Wind Pressure Humidity
    00:00 +16°C° 0 mm 1 mps 597 mmHg 76%
    01:00 +16°C° 0 mm 1 mps 597 mmHg 77%
    02:00 +15°C° 0 mm 1 mps 596 mmHg 78%
    03:00 +15°C° 0 mm 1 mps 596 mmHg 78%
    04:00 +15°C° 0 mm 1 mps 596 mmHg 78%
    05:00 +14°C° 0 mm 1 mps 595 mmHg 79%
    06:00 +16°C° 0 mm 1 mps 596 mmHg 74%
    07:00 +18°C° 0 mm 1 mps 597 mmHg 70%
    08:00 +19°C° 0 mm 1 mps 598 mmHg 65%
    09:00 +20°C° 0 mm 1 mps 598 mmHg 61%
    10:00 +22°C° 0 mm 1 mps 598 mmHg 58%
    11:00 +24°C° 0 mm 2 mps 599 mmHg 54%
    12:00 +24°C° 0.1 mm 2 mps 598 mmHg 54%
    13:00 +24°C° 0.1 mm 3 mps 598 mmHg 55%
    14:00 +25°C° 0.1 mm 3 mps 597 mmHg 55%
    15:00 +24°C° 0.2 mm 3 mps 597 mmHg 57%
    16:00 +22°C° 0.2 mm 3 mps 596 mmHg 60%
    17:00 +21°C° 0.2 mm 3 mps 595 mmHg 63%
    18:00 +20°C° 0.4 mm 2 mps 595 mmHg 70%
    19:00 +19°C° 0.4 mm 2 mps 596 mmHg 78%
    20:00 +18°C° 0.4 mm 1 mps 596 mmHg 85%
    21:00 +18°C° 0 mm 1 mps 596 mmHg 85%
    22:00 +18°C° 0 mm 1 mps 597 mmHg 85%
    23:00 +18°C° 0 mm 1 mps 597 mmHg 84%

    29 February, Saturday

    Time Temperature Precipitation Wind Pressure Humidity
    00:00 +18°C° 0 mm 1 mps 597 mmHg 83%
    01:00 +18°C° 0 mm 1 mps 597 mmHg 82%
    02:00 +18°C° 0 mm 1 mps 597 mmHg 81%
    03:00 +15°C° 0 mm 0 mps 597 mmHg 82%
    04:00 +15°C° 0 mm 0 mps 597 mmHg 84%
    05:00 +14°C° 0 mm 0 mps 597 mmHg 85%
    06:00 +15°C° 0 mm 0 mps 598 mmHg 80%
    07:00 +18°C° 0 mm 1 mps 599 mmHg 76%
    08:00 +19°C° 0 mm 1 mps 600 mmHg 71%
    09:00 +20°C° 0 mm 1 mps 600 mmHg 68%
    10:00 +21°C° 0 mm 1 mps 600 mmHg 66%
    11:00 +21°C° 0 mm 2 mps 600 mmHg 63%
    12:00 +21°C° 0.3 mm 2 mps 600 mmHg 64%
    13:00 +23°C° 0.3 mm 2 mps 600 mmHg 64%
    14:00 +22°C° 0.3 mm 3 mps 599 mmHg 65%
    15:00 +21°C° 0.3 mm 3 mps 599 mmHg 68%
    16:00 +20°C° 0.3 mm 2 mps 598 mmHg 71%
    17:00 +19°C° 0.3 mm 2 mps 598 mmHg 74%
    18:00 +19°C° 0.2 mm 2 mps 598 mmHg 78%
    19:00 +18°C° 0.2 mm 2 mps 599 mmHg 81%
    20:00 +18°C° 0.2 mm 1 mps 599 mmHg 85%
    21:00 +18°C° 0.9 mm 1 mps 600 mmHg 87%
    22:00 +18°C° 0.9 mm 1 mps 600 mmHg 89%
    23:00 +16°C° 0.9 mm 1 mps 601 mmHg 91%
    Show more